Location: Unspecified
(35.7250°N, 0.0000°E)
Time: 18:15:47
(UTC+00:00)

Vanguard 2 - Pass Details

Date: 24 June 2019
Orbit: 553 x 2938 km, 32.9° (Epoch: 18 July)

Event Time Altitude Azimuth Distance (km) Brightness Sun altitude
Rises 10:33:43 0° 272° (W) 3,501 10.7 67.2°
Reaches altitude 10° 10:35:50 10° 270° (W) 2,769 10.3 67.6°
Maximum altitude 10:42:35 67° 188° (S) 1,491 10.5 68.8°
Drops below altitude 10° 10:54:11 10° 110° (ESE) 4,585 11.9 70.8°
Sets 10:58:42 0° 108° (ESE) 5,945 12.3 71.5°
